| time (UTC) | temp F | wind direction | speed knots | gust knots | rain 1hr in | rain 24hr in | rain mn in | humidity % | barometer mb |
| 20260505041624 | 80 | 337 | 0.9 | 2.6 | 0.00 | 0.00 | 0.00 | 82 | 1018.9 |
| 20260505041122 | 81 | 331 | 0.9 | 1.7 | 0.00 | 0.00 | 0.00 | 82 | 1018.9 |
| 20260505040619 | 81 | 115 | 1.7 | 3.5 | 0.00 | 0.00 | 0.00 | 82 | 1018.8 |
| 20260505040116 | 81 | 159 | 1.7 | 2.6 | 0.00 | 0.00 | 0.00 | 82 | 1018.9 |
| 20260505035612 | 81 | 343 | 1.7 | 2.6 | 0.00 | 0.00 | 0.00 | 82 | 1018.8 |
| 20260505035109 | 81 | 21 | 0.9 | 2.6 | 0.00 | 0.00 | 0.00 | 82 | 1018.9 |
| 20260505034605 | 81 | 253 | 1.7 | 2.6 | 0.00 | 0.00 | 0.00 | 82 | 1018.8 |
| 20260505034102 | 81 | 345 | 1.7 | 3.5 | 0.00 | 0.00 | 0.00 | 82 | 1019.2 |
| 20260505033559 | 81 | 349 | 0.9 | 2.6 | 0.00 | 0.00 | 0.00 | 82 | 1019.2 |
| 20260505033058 | 81 | 310 | 3.5 | 6.1 | 0.00 | 0.00 | 0.00 | 82 | 1018.9 |
| 20260505032555 | 81 | 56 | 0.9 | 3.5 | 0.00 | 0.00 | 0.00 | 81 | 1018.9 |
| 20260505032051 | 81 | 354 | 0.9 | 7.0 | 0.00 | 0.00 | 0.00 | 81 | 1018.7 |
| 20260505031549 | 81 | 341 | 1.7 | 3.5 | 0.00 | 0.00 | 0.00 | 81 | 1018.9 |
| 20260505031045 | 81 | 338 | 1.7 | 6.1 | 0.00 | 0.00 | 0.00 | 81 | 1018.9 |
| 20260505030542 | 81 | 331 | 0.9 | 2.6 | 0.00 | 0.00 | 0.00 | 81 | 1018.8 |
| 20260505030038 | 81 | 17 | 0.9 | 2.6 | 0.00 | 0.00 | 0.00 | 81 | 1018.6 |
| 20260505025533 | 81 | 344 | 0.0 | 1.7 | 0.00 | 0.00 | 0.00 | 81 | 1018.8 |
| 20260505025033 | 81 | 333 | 0.9 | 1.7 | 0.00 | 0.00 | 0.00 | 81 | 1018.8 |
| 20260505024529 | 81 | 317 | 0.9 | 2.6 | 0.00 | 0.00 | 0.00 | 80 | 1018.6 |
| 20260505024026 | 81 | 0 | 1.7 | 5.2 | 0.00 | 0.00 | 0.00 | 80 | 1018.6 |
| 20260505023523 | 81 | 350 | 0.9 | 3.5 | 0.00 | 0.00 | 0.00 | 80 | 1018.8 |
| 20260505023021 | 81 | 8 | 0.9 | 1.7 | 0.00 | 0.00 | 0.00 | 80 | 1018.6 |
| 20260505022519 | 81 | 170 | 0.0 | 3.5 | 0.00 | 0.00 | 0.00 | 80 | 1018.6 |
| 20260505022016 | 81 | 328 | 1.7 | 5.2 | 0.00 | 0.00 | 0.00 | 80 | 1018.6 |
| 20260505021512 | 81 | 331 | 3.5 | 7.8 | 0.00 | 0.00 | 0.00 | 80 | 1018.6 |
| 20260505021008 | 81 | 66 | 1.7 | 3.5 | 0.00 | 0.00 | 0.00 | 80 | 1018.7 |
| 20260505020503 | 81 | 26 | 3.5 | 5.2 | 0.00 | 0.00 | 0.00 | 80 | 1018.7 |
| 20260505020000 | 81 | 194 | 1.7 | 3.5 | 0.00 | 0.00 | 0.00 | 80 | 1018.5 |
| 20260505015457 | 81 | 245 | 0.0 | 1.7 | 0.00 | 0.00 | 0.00 | 80 | 1018.6 |
| 20260505014954 | 81 | 4 | 1.7 | 3.5 | 0.00 | 0.00 | 0.00 | 80 | 1018.5 |
| 20260505014451 | 81 | 57 | 1.7 | 2.6 | 0.00 | 0.00 | 0.00 | 80 | 1018.6 |
| 20260505013948 | 81 | 20 | 0.9 | 5.2 | 0.00 | 0.00 | 0.00 | 79 | 1018.4 |
| 20260505013445 | 81 | 20 | 1.7 | 2.6 | 0.00 | 0.00 | 0.00 | 79 | 1018.5 |
| 20260505012943 | 81 | 345 | 0.9 | 2.6 | 0.00 | 0.00 | 0.00 | 80 | 1018.3 |
| 20260505012441 | 81 | 316 | 0.9 | 2.6 | 0.00 | 0.00 | 0.00 | 80 | 1018.2 |
| 20260505011937 | 81 | 38 | 1.7 | 6.1 | 0.00 | 0.00 | 0.00 | 80 | 1018.2 |
| 20260505011433 | 81 | 114 | 2.6 | 5.2 | 0.00 | 0.00 | 0.00 | 80 | 1018.1 |
| 20260505010930 | 81 | 340 | 0.9 | 2.6 | 0.00 | 0.00 | 0.00 | 80 | 1018.2 |
| 20260505010426 | 81 | 40 | 1.7 | 6.1 | 0.00 | 0.00 | 0.00 | 80 | 1018.1 |
| 20260505005922 | 81 | 218 | 2.6 | 5.2 | 0.00 | 0.00 | 0.00 | 80 | 1017.9 |
| 20260505005419 | 81 | 337 | 2.6 | 5.2 | 0.00 | 0.00 | 0.00 | 80 | 1018.0 |
| 20260505004916 | 82 | 249 | 0.9 | 3.5 | 0.00 | 0.00 | 0.00 | 80 | 1017.8 |
| 20260505004413 | 82 | 357 | 0.9 | 8.7 | 0.00 | 0.00 | 0.00 | 79 | 1017.8 |
| 20260505003910 | 82 | 192 | 3.5 | 6.1 | 0.00 | 0.00 | 0.00 | 80 | 1017.7 |
| 20260505003407 | 82 | 352 | 0.9 | 3.5 | 0.00 | 0.00 | 0.00 | 79 | 1017.6 |
| 20260505002903 | 82 | 36 | 0.9 | 1.7 | 0.00 | 0.00 | 0.00 | 79 | 1017.7 |
| 20260505002400 | 82 | 20 | 1.7 | 7.8 | 0.00 | 0.00 | 0.00 | 79 | 1017.5 |
| 20260505001858 | 82 | 24 | 0.9 | 1.7 | 0.00 | 0.00 | 0.00 | 79 | 1017.5 |
| 20260505001355 | 82 | 35 | 1.7 | 3.5 | 0.00 | 0.00 | 0.00 | 79 | 1017.5 |
| 20260505000853 | 82 | 341 | 0.9 | 5.2 | 0.00 | 0.00 | 0.00 | 78 | 1017.4 |
| 20260505000351 | 82 | 353 | 0.9 | 2.6 | 0.00 | 0.00 | 0.00 | 78 | 1017.3 |
| 20260504235846 | 82 | 357 | 0.0 | 2.6 | 0.00 | 0.00 | 0.00 | 78 | 1017.4 |
| 20260504235343 | 82 | 60 | 1.7 | 2.6 | 0.00 | 0.00 | 0.00 | 77 | 1017.1 |
| 20260504234840 | 82 | 348 | 0.0 | 3.5 | 0.00 | 0.00 | 0.00 | 78 | 1017.2 |
| 20260504234338 | 82 | 351 | 1.7 | 2.6 | 0.00 | 0.00 | 0.00 | 77 | 1017.1 |
| 20260504233834 | 83 | 41 | 0.9 | 2.6 | 0.00 | 0.00 | 0.00 | 77 | 1017.0 |
| 20260504233330 | 83 | 260 | 1.7 | 2.6 | 0.00 | 0.00 | 0.00 | 76 | 1017.2 |
| 20260504232827 | 83 | 327 | 0.9 | 6.1 | 0.00 | 0.00 | 0.00 | 76 | 1017.0 |
| 20260504232324 | 83 | 344 | 1.7 | 2.6 | 0.00 | 0.00 | 0.00 | 75 | 1016.8 |
| 20260504231821 | 83 | 58 | 1.7 | 5.2 | 0.00 | 0.00 | 0.00 | 75 | 1017.0 |
| 20260504231317 | 83 | 3 | 0.0 | 2.6 | 0.00 | 0.00 | 0.00 | 74 | 1016.6 |
| 20260504230813 | 83 | 4 | 1.7 | 6.1 | 0.00 | 0.00 | 0.00 | 74 | 1016.7 |
| 20260504230311 | 83 | 79 | 1.7 | 6.1 | 0.00 | 0.00 | 0.00 | 73 | 1016.8 |
| 20260504225810 | 83 | 28 | 0.9 | 13.0 | 0.00 | 0.00 | 0.00 | 73 | 1016.8 |
| 20260504225306 | 83 | 358 | 3.5 | 5.2 | 0.00 | 0.00 | 0.00 | 73 | 1016.4 |
| 20260504224803 | 83 | 224 | 0.9 | 5.2 | 0.00 | 0.00 | 0.00 | 73 | 1016.5 |
| 20260504224300 | 83 | 346 | 0.9 | 7.0 | 0.00 | 0.00 | 0.00 | 72 | 1016.2 |
| 20260504223757 | 84 | 320 | 0.9 | 5.2 | 0.00 | 0.00 | 0.00 | 72 | 1016.2 |
| 20260504223252 | 84 | 322 | 2.6 | 6.1 | 0.00 | 0.00 | 0.00 | 72 | 1016.3 |
| 20260504222749 | 84 | 347 | 2.6 | 5.2 | 0.00 | 0.00 | 0.00 | 71 | 1016.2 |
| 20260504222246 | 85 | 146 | 1.7 | 3.5 | 0.00 | 0.00 | 0.00 | 71 | 1016.0 |
| 20260504221744 | 85 | 210 | 0.9 | 6.1 | 0.00 | 0.00 | 0.00 | 69 | 1016.1 |
| 20260504221241 | 85 | 352 | 1.7 | 7.0 | 0.00 | 0.00 | 0.00 | 70 | 1016.1 |
| 20260504220737 | 85 | 273 | 1.7 | 5.2 | 0.00 | 0.00 | 0.00 | 70 | 1015.9 |
| 20260504220235 | 85 | 340 | 2.6 | 7.0 | 0.00 | 0.00 | 0.00 | 70 | 1015.9 |
| 20260504215732 | 85 | 71 | 4.3 | 7.0 | 0.00 | 0.00 | 0.00 | 69 | 1016.1 |
| 20260504215228 | 86 | 96 | 2.6 | 6.1 | 0.00 | 0.00 | 0.00 | 68 | 1015.8 |
| 20260504214724 | 86 | 353 | 1.7 | 5.2 | 0.00 | 0.00 | 0.00 | 67 | 1016.2 |
| 20260504214221 | 85 | 35 | 2.6 | 7.8 | 0.00 | 0.00 | 0.00 | 67 | 1016.0 |
| 20260504213718 | 85 | 18 | 4.3 | 8.7 | 0.00 | 0.00 | 0.00 | 67 | 1015.7 |
| 20260504213214 | 86 | 170 | 1.7 | 7.8 | 0.00 | 0.00 | 0.00 | 67 | 1015.9 |
| 20260504212711 | 87 | 354 | 2.6 | 3.5 | 0.00 | 0.00 | 0.00 | 65 | 1015.7 |
| 20260504212208 | 87 | 280 | 1.7 | 5.2 | 0.00 | 0.00 | 0.00 | 66 | 1015.7 |
| 20260504211705 | 87 | 312 | 1.7 | 6.1 | 0.00 | 0.00 | 0.00 | 66 | 1015.8 |
| 20260504211201 | 87 | 97 | 3.5 | 7.0 | 0.00 | 0.00 | 0.00 | 65 | 1015.7 |
| 20260504210659 | 86 | 40 | 3.5 | 7.8 | 0.00 | 0.00 | 0.00 | 67 | 1015.9 |
| 20260504210155 | 87 | 20 | 2.6 | 6.1 | 0.00 | 0.00 | 0.00 | 64 | 1015.9 |
| 20260504205653 | 87 | 195 | 1.7 | 7.8 | 0.00 | 0.00 | 0.00 | 64 | 1015.9 |
| 20260504205150 | 88 | 91 | 1.7 | 6.1 | 0.00 | 0.00 | 0.00 | 63 | 1015.9 |
| 20260504204648 | 87 | 14 | 1.7 | 6.1 | 0.00 | 0.00 | 0.00 | 63 | 1016.0 |
| 20260504204147 | 88 | 15 | 3.5 | 6.1 | 0.00 | 0.00 | 0.00 | 63 | 1016.2 |
| 20260504203645 | 87 | 8 | 0.9 | 6.1 | 0.00 | 0.00 | 0.00 | 63 | 1016.2 |
| 20260504203143 | 88 | 359 | 2.6 | 6.1 | 0.00 | 0.00 | 0.00 | 62 | 1016.2 |
| 20260504202643 | 88 | 316 | 2.6 | 3.5 | 0.00 | 0.00 | 0.00 | 62 | 1016.4 |
| 20260504202140 | 88 | 62 | 3.5 | 7.8 | 0.00 | 0.00 | 0.00 | 61 | 1016.6 |
| 20260504201637 | 88 | 25 | 4.3 | 7.0 | 0.00 | 0.00 | 0.00 | 63 | 1016.5 |
| 20260504201135 | 89 | 32 | 3.5 | 7.0 | 0.00 | 0.00 | 0.00 | 62 | 1016.4 |
| 20260504200631 | 88 | 13 | 1.7 | 5.2 | 0.00 | 0.00 | 0.00 | 61 | 1016.8 |
| 20260504200128 | 88 | 41 | 5.2 | 8.7 | 0.00 | 0.00 | 0.00 | 62 | 1016.6 |
| 20260504195624 | 89 | 251 | 0.9 | 6.1 | 0.00 | 0.00 | 0.00 | 62 | 1016.7 |
| 20260504195120 | 89 | 289 | 0.9 | 5.2 | 0.00 | 0.00 | 0.00 | 62 | 1016.9 |
| 20260504194617 | 89 | 336 | 0.9 | 3.5 | 0.00 | 0.00 | 0.00 | 63 | 1016.8 |
| 20260504194113 | 89 | 99 | 3.5 | 6.1 | 0.00 | 0.00 | 0.00 | 63 | 1017.1 |
| 20260504193609 | 89 | 313 | 1.7 | 5.2 | 0.00 | 0.00 | 0.00 | 63 | 1016.9 |
| 20260504193108 | 90 | 129 | 1.7 | 6.1 | 0.00 | 0.00 | 0.00 | 61 | 1017.1 |
| 20260504192606 | 89 | 347 | 0.9 | 6.1 | 0.00 | 0.00 | 0.00 | 62 | 1017.2 |
| 20260504192104 | 89 | 255 | 1.7 | 3.5 | 0.00 | 0.00 | 0.00 | 63 | 1017.3 |
| 20260504191602 | 89 | 318 | 1.7 | 5.2 | 0.00 | 0.00 | 0.00 | 64 | 1017.2 |
| 20260504191057 | 90 | 169 | 1.7 | 2.6 | 0.00 | 0.00 | 0.00 | 61 | 1017.4 |
| 20260504190554 | 90 | 97 | 4.3 | 7.0 | 0.00 | 0.00 | 0.00 | 61 | 1017.3 |
| 20260504190050 | 89 | 253 | 1.7 | 8.7 | 0.00 | 0.00 | 0.00 | 64 | 1017.3 |
| 20260504185547 | 89 | 194 | 1.7 | 6.1 | 0.00 | 0.00 | 0.00 | 63 | 1017.4 |
| 20260504185044 | 89 | 64 | 1.7 | 6.1 | 0.00 | 0.00 | 0.00 | 64 | 1017.4 |
| 20260504184539 | 88 | 329 | 1.7 | 7.8 | 0.00 | 0.00 | 0.00 | 65 | 1017.4 |
| 20260504184035 | 89 | 333 | 4.3 | 7.0 | 0.00 | 0.00 | 0.00 | 63 | 1017.4 |
| 20260504183532 | 89 | 307 | 1.7 | 7.0 | 0.00 | 0.00 | 0.00 | 65 | 1017.5 |
| 20260504183030 | 89 | 110 | 1.7 | 6.1 | 0.00 | 0.00 | 0.00 | 62 | 1017.6 |
| 20260504182526 | 89 | 205 | 1.7 | 3.5 | 0.00 | 0.00 | 0.00 | 61 | 1017.6 |
| 20260504182024 | 90 | 60 | 2.6 | 7.8 | 0.00 | 0.00 | 0.00 | 61 | 1017.8 |
| 20260504181521 | 89 | 151 | 2.6 | 7.0 | 0.00 | 0.00 | 0.00 | 62 | 1017.6 |
| 20260504181020 | 89 | 349 | 2.6 | 7.0 | 0.00 | 0.00 | 0.00 | 62 | 1017.7 |
| 20260504180518 | 90 | 268 | 3.5 | 7.8 | 0.00 | 0.00 | 0.00 | 62 | 1017.6 |
| 20260504180016 | 90 | 131 | 2.6 | 7.0 | 0.00 | 0.00 | 0.00 | 62 | 1017.9 |
| 20260504175513 | 89 | 4 | 2.6 | 5.2 | 0.00 | 0.00 | 0.00 | 62 | 1018.1 |
| 20260504175010 | 89 | 243 | 4.3 | 6.1 | 0.00 | 0.00 | 0.00 | 64 | 1017.8 |
| 20260504174508 | 88 | 215 | 2.6 | 8.7 | 0.00 | 0.00 | 0.00 | 64 | 1018.1 |
| 20260504174005 | 88 | 255 | 0.9 | 9.6 | 0.00 | 0.00 | 0.00 | 64 | 1018.2 |
| 20260504173501 | 88 | 247 | 2.6 | 7.0 | 0.00 | 0.00 | 0.00 | 65 | 1018.4 |
| 20260504172959 | 87 | 202 | 3.5 | 7.8 | 0.00 | 0.00 | 0.00 | 65 | 1018.6 |
| 20260504172454 | 87 | 128 | 2.6 | 5.2 | 0.00 | 0.00 | 0.00 | 66 | 1018.6 |
| 20260504171951 | 87 | 120 | 2.6 | 6.1 | 0.00 | 0.00 | 0.00 | 65 | 1018.6 |
| 20260504171448 | 88 | 317 | 3.5 | 6.1 | 0.00 | 0.00 | 0.00 | 64 | 1018.9 |
| 20260504170945 | 88 | 3 | 3.5 | 5.2 | 0.00 | 0.00 | 0.00 | 64 | 1018.9 |
| 20260504170441 | 88 | 354 | 3.5 | 7.8 | 0.00 | 0.00 | 0.00 | 64 | 1018.9 |
| 20260504160401 | 90 | 42 | 4.3 | 6.1 | 0.00 | 0.00 | 0.00 | 62 | 1019.5 |
| 20260504150825 | 88 | 14 | 2.6 | 7.0 | 0.00 | 0.00 | 0.00 | 64 | 1020.1 |
| 20260504150322 | 88 | 356 | 1.7 | 5.2 | 0.00 | 0.00 | 0.00 | 64 | 1020.1 |
| 20260504141252 | 88 | 32 | 2.6 | 5.2 | 0.00 | 0.00 | 0.00 | 65 | 1020.0 |
| 20260504140749 | 87 | 81 | 2.6 | 7.0 | 0.00 | 0.00 | 0.00 | 67 | 1020.2 |
| 20260504140244 | 87 | 354 | 1.7 | 3.5 | 0.00 | 0.00 | 0.00 | 68 | 1020.0 |
| 20260504130713 | 85 | 38 | 2.6 | 3.5 | 0.00 | 0.00 | 0.00 | 73 | 1020.2 |
| 20260504130209 | 84 | 304 | 1.7 | 6.1 | 0.00 | 0.00 | 0.00 | 74 | 1020.1 |
| 20260504120133 | 84 | 121 | 2.6 | 6.1 | 0.00 | 0.00 | 0.00 | 73 | 1019.8 |
| 20260504110600 | 81 | 355 | 0.9 | 1.7 | 0.00 | 0.00 | 0.00 | 78 | 1018.9 |
| 20260504100522 | 80 | 347 | 0.9 | 1.7 | 0.00 | 0.00 | 0.00 | 79 | 1018.4 |
| 20260504081915 | 80 | 38 | 1.7 | 3.5 | 0.00 | 0.00 | 0.00 | 79 | 1017.6 |
| 20260504081412 | 80 | 43 | 1.7 | 5.2 | 0.00 | 0.00 | 0.00 | 79 | 1017.7 |
| 20260504080908 | 80 | 348 | 0.9 | 1.7 | 0.00 | 0.00 | 0.00 | 80 | 1017.6 |
| 20260504080405 | 80 | 325 | 0.9 | 1.7 | 0.00 | 0.00 | 0.00 | 79 | 1017.6 |
| 20260504070332 | 80 | 50 | 1.7 | 2.6 | 0.00 | 0.00 | 0.00 | 81 | 1017.8 |
| 20260504050721 | 80 | 318 | 1.7 | 2.6 | 0.00 | 0.00 | 0.00 | 78 | 1018.6 |
| 20260504050218 | 80 | 28 | 1.7 | 2.6 | 0.00 | 0.00 | 0.00 | 78 | 1018.6 |